Weather in Zhernovets

Russia / Kursk Oblast     51°54′13″N   36°18′26″E
temp.,
°C
wind,
m/s
gust,
m/s
humid.,
%
clouds,
%
prec.,
mm/h
press.,
hPa
HPBL,
m
20 june, sun
sun2000:00+15ese35880 0.0 102376
03:00+14e36900 0.0 102393
06:00+16e37890 0.0 1022158
09:00+21e58745 0.0 1022481
12:00+24ese566412 0.0 1022911
15:00+25e566275 0.0 10201000
18:00+22e487797 0.0 1020345
21:00+19ene4686100 0.0 102089
21 june, mon
mon2100:00+17e4985100 0.0 1019146
03:00+16e41087100 0.0 1019175
06:00+17e4118596 0.0 1019239
09:00+21e6978100 0.0 1018303
12:00+25ese576773 0.0 1018569
15:00+26ese68655 0.0 1018687
18:00+25ese510735 0.0 1018701
21:00+21ese4108764 0.0 1018198
22 june, tue
tue2200:00+18ese49895 0.0 1018143
03:00+17e410914 0.0 1018170
06:00+18e412862 0.0 1018232
09:00+24ese597244 0.0 1019420
12:00+26ese676394 0.0 1019645
15:00+28ese6867100 0.0 1018892
18:00+27ese59755 0.0 1018658
21:00+22e48915 0.0 1019144
23 june, wed
wed2300:00+21e4128554 0.0 1018225
03:00+19e49858 0.0 1019150
06:00+19e4128489 0.0 1019245
09:00+24e51173100 0.0 1019390
12:00+27ese466572 0.0 1019651
15:00+29e566590 0.0 1019859
18:00+26e388193 0.0 1019182
21:00+23ese359084 0.0 101979
24 june, thu
thu2400:00+21se2385100 0.0 101928
03:00+20ene2287100 0.0 101918
06:00+21ene3585100 0.0 1020102
09:00+25e467497 0.0 1020325
12:00+29ese455575 0.0 1019700
15:00+30ese455653 0.0 10191050
18:00+29ese35696 0.0 1018222
21:00+24ese33775 0.0 101825